TimeEDT,TemperatureF,Dew PointF,Humidity,Sea Level PressureIn,VisibilityMPH,Wind Direction,Wind SpeedMPH,Gust SpeedMPH,PrecipitationIn,Events,Conditions,WindDirDegrees,DateUTC
12:54 AM,41.0,28.0,60,30.28,10.0,NNW,5.8,-,N/A,,Clear,340,2013-03-29 04:54:00
1:54 AM,41.0,27.0,57,30.29,10.0,North,4.6,-,N/A,,Clear,350,2013-03-29 05:54:00
2:54 AM,37.0,28.0,70,30.29,10.0,Calm,Calm,-,N/A,,Clear,0,2013-03-29 06:54:00
3:54 AM,35.1,28.9,78,30.29,10.0,Calm,Calm,-,N/A,,Clear,0,2013-03-29 07:54:00
4:54 AM,33.1,28.0,82,30.28,10.0,Calm,Calm,-,N/A,,Clear,0,2013-03-29 08:54:00
5:54 AM,33.1,28.9,85,30.30,10.0,Calm,Calm,-,N/A,,Clear,0,2013-03-29 09:54:00
6:54 AM,30.9,27.0,85,30.30,10.0,Calm,Calm,-,N/A,,Clear,0,2013-03-29 10:54:00
7:54 AM,35.1,30.9,85,30.32,10.0,Calm,Calm,-,N/A,,Clear,0,2013-03-29 11:54:00
8:54 AM,45.0,30.0,56,30.33,10.0,NW,5.8,-,N/A,,Clear,310,2013-03-29 12:54:00
9:54 AM,52.0,28.0,40,30.33,10.0,Variable,4.6,-,N/A,,Clear,0,2013-03-29 13:54:00
10:54 AM,53.1,25.0,34,30.32,10.0,North,10.4,-,N/A,,Clear,350,2013-03-29 14:54:00
11:54 AM,55.0,25.0,31,30.31,10.0,North,13.8,17.3,N/A,,Clear,350,2013-03-29 15:54:00
12:54 PM,57.0,26.1,30,30.29,10.0,North,9.2,-,N/A,,Clear,10,2013-03-29 16:54:00
1:54 PM,60.1,26.1,27,30.26,10.0,Variable,5.8,17.3,N/A,,Clear,0,2013-03-29 17:54:00
2:54 PM,59.0,25.0,27,30.23,10.0,West,8.1,-,N/A,,Partly Cloudy,280,2013-03-29 18:54:00
3:54 PM,60.1,25.0,26,30.22,10.0,NW,4.6,-,N/A,,Clear,310,2013-03-29 19:54:00
4:54 PM,59.0,26.1,28,30.20,10.0,WNW,10.4,16.1,N/A,,Scattered Clouds,300,2013-03-29 20:54:00
5:54 PM,59.0,24.1,26,30.21,10.0,NNW,5.8,-,N/A,,Clear,330,2013-03-29 21:54:00
6:54 PM,57.0,27.0,32,30.22,10.0,NW,5.8,-,N/A,,Clear,320,2013-03-29 22:54:00
7:54 PM,48.0,30.9,52,30.22,10.0,South,3.5,-,N/A,,Clear,170,2013-03-29 23:54:00
8:54 PM,48.9,34.0,56,30.24,10.0,SSW,6.9,-,N/A,,Clear,200,2013-03-30 00:54:00
9:54 PM,46.9,35.1,63,30.25,10.0,SSW,3.5,-,N/A,,Clear,200,2013-03-30 01:54:00
10:54 PM,45.0,35.1,68,30.26,10.0,South,3.5,-,N/A,,Clear,180,2013-03-30 02:54:00
11:54 PM,45.0,37.0,74,30.25,10.0,South,4.6,-,N/A,,Clear,190,2013-03-30 03:54:00